CSG-1

Last updated on Mon Jun 22 2026 00:02:52 GMT+0000 (Coordinated Universal Time)

1 44873U 19092A 26172.50704431 .00000268 00000+0 40246-4 0 9994 2 44873 97.8889 356.0469 0001452 89.7275 270.4105 14.82156000352118
UTC large
Height (km)
Speed (km/s)
/
Latitude / Longitude
Inclination (degrees)
Orbital Period (minutes)
Azimuth
Elevation
Range (km)
Doppler Factor

Next 0 passes for location: London (51.5072 / 0.1276)

No passes found over London.
CSG-1